OE3PDB-3 Weather Reports


Display with metric or nautical units.
time (UTC)temp
F
wind
direction
speed
MPH
gust
MPH
rain 1hr
in
rain 24hr
in
rain mn
in
humidity
%
barometer
mb
20260507182041 59 270 0.0 0.0 0.00 0.00 0.00 58 1013.1
20260507181041 59 337 0.0 0.0 0.00 0.00 0.00 57 1013.1
20260507180041 59 292 0.0 0.0 0.00 0.00 0.00 56 1013.0
20260507175041 59 270 0.0 0.0 0.00 0.00 0.00 56 1013.0
20260507174041 59 292 0.0 0.0 0.00 0.00 0.00 56 1013.0
20260507173041 60 22 0.0 0.0 0.00 0.00 0.00 55 1012.9
20260507172041 60 202 0.0 0.0 0.00 0.00 0.00 54 1012.7
20260507171041 60 247 0.0 0.0 0.00 0.00 0.00 54 1012.4
20260507170041 60 292 0.0 0.0 0.00 0.00 0.00 54 1012.3
20260507165041 61 270 0.0 0.0 0.00 0.00 0.00 54 1012.4
20260507164041 61 247 0.0 0.0 0.00 0.00 0.00 54 1012.4
20260507163041 62 247 0.0 0.0 0.00 0.00 0.00 54 1012.2
20260507162041 62 247 0.0 0.0 0.00 0.00 0.00 52 1012.2
20260507161041 63 247 0.0 0.0 0.00 0.00 0.00 51 1012.2
20260507160041 64 270 0.0 0.0 0.00 0.00 0.00 50 1012.1
20260507155041 65 270 0.0 0.0 0.00 0.00 0.00 48 1012.0
20260507154041 66 225 0.0 0.0 0.00 0.00 0.00 47 1012.0
20260507153041 66 157 0.0 0.0 0.00 0.00 0.00 46 1011.8
20260507152041 67 270 0.0 0.0 0.00 0.00 0.00 45 1011.7
20260507151041 67 292 0.0 0.0 0.00 0.00 0.00 45 1011.7
20260507150041 67 270 0.0 0.0 0.00 0.00 0.00 44 1011.7
20260507145041 69 270 0.0 0.0 0.00 0.00 0.00 43 1011.7
20260507144041 69 247 0.0 0.0 0.00 0.00 0.00 42 1011.7
20260507143041 70 247 0.0 0.0 0.00 0.00 0.00 41 1011.7
20260507142041 71 247 0.0 0.0 0.00 0.00 0.00 41 1011.7
20260507141041 71 225 0.0 0.0 0.00 0.00 0.00 40 1011.6
20260507140041 73 112 0.0 0.0 0.00 0.00 0.00 39 1011.6
20260507135041 73 135 0.0 0.0 0.00 0.00 0.00 39 1011.6
20260507134041 73 135 0.0 0.0 0.00 0.00 0.00 39 1011.7
20260507133041 74 135 0.0 0.0 0.00 0.00 0.00 39 1011.7
20260507132041 74 135 0.0 0.0 0.00 0.00 0.00 38 1011.8
20260507131041 75 22 0.0 0.0 0.00 0.00 0.00 38 1011.9
20260507130041 75 135 0.0 0.0 0.00 0.00 0.00 39 1011.8
20260507125041 74 292 0.0 0.0 0.00 0.00 0.00 40 1011.8
20260507124041 73 22 0.0 0.0 0.00 0.00 0.00 42 1011.9
20260507123041 71 22 0.0 0.0 0.00 0.00 0.00 43 1011.9
20260507122041 70 112 0.0 0.0 0.00 0.00 0.00 45 1012.0
20260507121041 68 315 0.0 0.0 0.00 0.00 0.00 46 1012.1
20260507120041 67 270 0.0 0.0 0.00 0.00 0.00 47 1012.2
20260507115041 66 337 0.0 0.0 0.00 0.00 0.00 48 1012.3
20260507114041 66 112 0.0 0.0 0.00 0.00 0.00 48 1012.4
20260507113041 66 112 0.0 0.0 0.00 0.00 0.00 49 1012.6
20260507112041 66 135 0.0 0.0 0.00 0.00 0.00 50 1012.6
20260507111042 66 45 0.0 0.0 0.00 0.00 0.00 49 1012.7
20260507110042 66 135 0.0 0.0 0.00 0.00 0.00 50 1012.7
20260507105042 66 22 0.0 0.0 0.00 0.00 0.00 50 1012.8
20260507104042 66 157 0.0 0.0 0.00 0.00 0.00 50 1012.8
20260507103042 66 90 0.0 0.0 0.00 0.00 0.00 52 1012.9
20260507102042 65 0 0.0 0.0 0.00 0.00 0.00 52 1012.9
20260507101042 64 22 0.0 0.0 0.00 0.00 0.00 54 1013.0
20260507100042 63 315 0.0 0.0 0.00 0.00 0.00 54 1012.9
20260507095042 63 247 0.0 0.0 0.00 0.00 0.00 54 1012.8
20260507094042 63 180 0.0 0.0 0.00 0.00 0.00 53 1012.8
20260507093042 63 22 0.0 0.0 0.00 0.00 0.00 53 1012.8
20260507092042 63 225 0.0 0.0 0.00 0.00 0.00 54 1012.7
20260507091042 62 247 0.0 0.0 0.00 0.00 0.00 55 1012.6
20260507090042 62 292 0.0 0.0 0.00 0.00 0.00 55 1012.6
20260507085042 62 315 0.0 0.0 0.00 0.00 0.00 54 1012.5
20260507084042 62 180 0.0 0.0 0.00 0.00 0.00 55 1012.3
20260507083042 62 112 0.0 0.0 0.00 0.00 0.00 55 1012.2
20260507082042 61 135 0.0 0.0 0.00 0.00 0.00 57 1012.1
20260507081042 61 112 0.0 0.0 0.00 0.00 0.00 58 1012.1
20260507080042 60 67 0.0 0.0 0.00 0.00 0.00 59 1012.1
20260507075042 60 90 0.0 0.0 0.00 0.00 0.00 59 1012.1
20260507074042 60 45 0.0 0.0 0.00 0.00 0.00 59 1012.0
20260507073042 60 45 0.0 0.0 0.00 0.00 0.00 60 1011.7
20260507072042 60 0 0.0 0.0 0.00 0.00 0.00 62 1011.6
20260507071042 58 112 0.0 0.0 0.00 0.00 0.00 64 1011.6
20260507070042 57 45 0.0 0.0 0.00 0.00 0.00 65 1011.6
20260507065042 56 90 0.0 0.0 0.00 0.00 0.00 66 1011.6
20260507064042 56 337 0.0 0.0 0.00 0.00 0.00 67 1011.7
20260507063042 55 112 0.0 0.0 0.00 0.00 0.00 68 1011.7
20260507062042 55 337 0.0 0.0 0.00 0.00 0.00 68 1011.7
20260507061042 55 270 0.0 0.0 0.00 0.00 0.00 68 1011.5
20260507060042 55 22 0.0 0.0 0.00 0.00 0.00 69 1011.3
20260507055042 55 135 0.0 0.0 0.00 0.00 0.00 69 1011.4
20260507054042 54 135 0.0 0.0 0.00 0.00 0.00 70 1011.4
20260507053042 54 112 0.0 0.0 0.00 0.00 0.00 71 1011.2
20260507052042 53 292 0.0 0.0 0.00 0.00 0.00 71 1011.1
20260507051042 53 90 0.0 0.0 0.00 0.00 0.00 71 1011.0
20260507050042 53 22 0.0 0.0 0.00 0.00 0.00 71 1010.9
20260507045042 53 112 0.0 0.0 0.00 0.00 0.00 71 1010.7
20260507044042 52 202 0.0 0.0 0.00 0.00 0.00 72 1010.6
20260507043042 52 112 0.0 0.0 0.00 0.00 0.00 72 1010.7
20260507042042 52 45 0.0 0.0 0.00 0.00 0.00 71 1010.6
20260507041042 52 157 0.0 0.0 0.00 0.00 0.00 71 1010.4
20260507040042 52 22 0.0 0.0 0.00 0.00 0.00 71 1010.3
20260507035042 52 337 0.0 0.0 0.00 0.00 0.00 71 1010.2
20260507034042 52 292 0.0 0.0 0.00 0.00 0.00 71 1010.2
20260507033042 53 135 0.0 0.0 0.00 0.00 0.00 71 1010.1
20260507032042 53 0 0.0 0.0 0.00 0.00 0.00 70 1009.9
20260507031042 53 67 0.0 0.0 0.00 0.00 0.00 70 1009.9
20260507030042 53 22 0.0 0.0 0.00 0.00 0.00 70 1010.0
20260507025042 53 157 0.0 0.0 0.00 0.00 0.00 70 1009.9
20260507024043 53 67 0.0 0.0 0.00 0.00 0.00 70 1009.9
20260507023043 54 67 0.0 0.0 0.00 0.00 0.00 70 1009.8
20260507022043 54 292 0.0 0.0 0.00 0.00 0.00 70 1009.6
20260507021043 54 315 0.0 0.0 0.00 0.00 0.00 71 1009.7
20260507020043 54 0 0.0 0.0 0.00 0.00 0.00 71 1009.4
20260507015043 54 315 0.0 0.0 0.00 0.00 0.00 71 1009.4
20260507014043 54 22 0.0 0.0 0.00 0.00 0.00 72 1009.5
20260507013043 55 45 0.0 0.0 0.00 0.00 0.00 72 1009.4
20260507012043 55 157 0.0 0.0 0.00 0.00 0.00 72 1009.3
20260507011043 55 292 0.0 0.0 0.00 0.00 0.00 72 1009.3
20260507010043 55 135 0.0 0.0 0.00 0.00 0.00 72 1009.2
20260507005043 55 135 0.0 0.0 0.00 0.00 0.00 72 1009.0
20260507004043 55 202 0.0 0.0 0.00 0.00 0.00 72 1008.9
20260507003043 56 315 0.0 0.0 0.00 0.00 0.00 71 1008.9
20260507002043 56 270 0.0 0.0 0.00 0.00 0.00 71 1008.8
20260507001043 56 45 0.0 0.0 0.00 0.00 0.00 71 1008.9
20260506235041 56 67 0.0 0.0 0.00 0.00 0.00 71 1008.5
20260506234041 57 337 0.0 0.0 0.00 0.00 0.00 71 1008.5
20260506233041 57 337 0.0 0.0 0.00 0.00 0.00 72 1008.5
20260506232041 57 225 0.0 0.0 0.00 0.00 0.00 73 1008.5
20260506231041 57 180 0.0 0.0 0.00 0.00 0.00 73 1008.2
20260506230041 57 45 0.0 0.0 0.00 0.00 0.00 72 1007.9
20260506225042 57 225 0.0 0.0 0.00 0.00 0.00 72 1007.8
20260506224042 58 0 0.0 0.0 0.00 0.00 0.00 71 1007.7
20260506223042 58 90 0.0 0.0 0.00 0.00 0.00 68 1007.6
20260506222042 58 0 0.0 0.0 0.00 0.00 0.00 67 1007.4
20260506221042 59 247 0.0 0.0 0.00 0.00 0.00 66 1006.9
20260506220042 59 270 0.0 0.0 0.00 0.00 0.00 65 1006.7
20260506215042 59 225 0.0 0.0 0.00 0.00 0.00 63 1006.6
20260506214042 60 202 0.0 0.0 0.00 0.00 0.00 63 1006.6
20260506213042 60 315 0.0 0.0 0.00 0.00 0.00 62 1006.5
20260506212042 60 22 0.0 0.0 0.00 0.00 0.00 62 1006.2
20260506211042 60 247 0.0 0.0 0.00 0.00 0.00 62 1006.0
20260506210042 60 247 0.0 0.0 0.00 0.00 0.00 62 1005.7
20260506205042 61 270 0.0 0.0 0.00 0.00 0.00 61 1005.6
20260506204042 62 270 0.0 0.0 0.00 0.00 0.00 59 1005.5
20260506203042 62 270 0.0 0.0 0.00 0.00 0.00 58 1005.4
20260506202042 62 270 0.0 0.0 0.00 0.00 0.00 57 1005.2
20260506201042 63 270 0.0 0.0 0.00 0.00 0.00 57 1005.1
20260506200042 63 270 0.0 0.0 0.00 0.00 0.00 57 1004.9
20260506195042 64 270 0.0 0.0 0.00 0.00 0.00 57 1004.9
20260506194042 64 270 0.0 0.0 0.00 0.00 0.00 56 1004.7
20260506193042 64 270 0.0 0.0 0.00 0.00 0.00 56 1004.5
20260506192042 64 270 0.0 0.0 0.00 0.00 0.00 55 1004.4
20260506191042 65 247 0.0 0.0 0.00 0.00 0.00 54 1004.3
20260506190042 65 270 0.0 0.0 0.00 0.00 0.00 53 1004.2
20260506185042 66 270 0.0 0.0 0.00 0.00 0.00 53 1004.2
20260506184042 66 270 0.0 0.0 0.00 0.00 0.00 52 1004.1
20260506183042 66 270 0.0 0.0 0.00 0.00 0.00 52 1004.1